User: anonymous   Login
Location: Gungolding
(48.9246°N, 11.3502°E)
Time: 21:26:17
(UTC+02:00)
Language:

Altair - Orbit

View from above orbital plane
View from above orbital plane
View from above satellite
View from above satellite

Ground track
Ground track

The orbit data is extracted from the following two-line orbital elements,

1    50U 60009B   20090.18778337 -.00000088 +00000-0 -17505-4 0  9995
2    50 047.2338 007.2843 0113365 089.2217 272.1560 12.20110009660546
Epoch (UTC): 30 March 2020 04:30:24
Eccentricity: 0.0113365
inclination: 47.2338°
perigee height: 1502 km
apogee height: 1682 km
right ascension of ascending node: 7.2843°
argument of perigee: 89.2217°
revolutions per day: 12.20110009
mean anomaly at epoch: 272.1560°
orbit number at epoch: 66054

The dashed part of the orbit path shows where the satellite is in the earth's shadow,  

DLR